Location: Livorno
(43.5500°N, 10.3170°E)
Time: 16:42:48
(UTC+01:00)

Envisat - Pass Details

Date: 31 October 2020
Orbit: 764 x 766 km, 98.1° (Epoch: 30 November)

Event Time Altitude Azimuth Distance (km) Brightness Sun altitude
Rises 05:30:59 0° 23° (NNE) 3,241 6.5 -15.4°
Reaches altitude 10° 05:33:35 10° 34° (NE) 2,310 5.9 -14.9°
Maximum altitude 05:38:01 30° 95° (E) 1,355 5.1 -14.1°
Drops below altitude 10° 05:42:25 10° 156° (SSE) 2,294 5.9 -13.3°
Sets 05:44:59 0° 167° (SSE) 3,215 6.5 -12.9°
